sat.trackr.live / text

‹ back to catalog

STARLINK-34045

NORAD 63979 · 2025-099AD

PAYLOAD ACTIVE UNKNOWN

§ Identity

Operator
Country
US
Launch date
2025-05-13
Launch site
AFETR
Launch vehicle
Mass (kg)
RCS (m²)

Purposes: comms

External: N2YO · Heavens-Above · Gunter

§ Orbital elements

Epoch: 2026-05-24T13:51:27.716832Z

Period
94.27 min
Inclination
42.9969°
Eccentricity
0.0000691
Mean motion
15.27587092 rev/d
Perigee alt
482.6 km
Apogee alt
483.5 km
Semi-major
6,861.2 km
B*
4.0249e-4
RAAN
104.0582°
Arg perigee
260.6393°
Mean anomaly
99.4380°
Rev number
5,889

§ Raw data

STARLINK-340451 63979U 25099AD  26144.57740413  .00010832  00000+0  40249-3 0  99922 63979  42.9969 104.0582 0000691 260.6393  99.4380 15.27587092 58899

JSON: /api/v1/satellites/63979 · /tle

For live sub-satellite position, see the globe view (requires WebGL).

§ Visibility from observer

Set your observer location to see the next 7 days of passes ≥ 10°. The values pass through the URL so the page stays shareable.

No JS? Fill the form by hand. The geolocation button needs JavaScript.